Starlink 5876

operational
NORAD ID: 56321 Int'l Des: 2023-058 Owner: SPXS Country: US Constellation: starlink
LEOCIRCULARRETROGRADESSO

Über Starlink 5876

Beschreibung wird geladen...

Live-Position

3D-Globus wird geladen...

Nächste Überflüge

Höhenverlauf

Altitude vs Time

uPlot chart will show altitude changes over time

Zweizeiliger Elementsatz

1 56321U 23058E 25349.97901149 .00015287 00000-0 10610-2 0 9991
2 56321 97.6016 348.7458 0002353 115.2921 244.8550 15.05660996145253
Epoch: 15. Dez. 2025 • Age: 23 hours

Aktueller Status

Höhe 561.1 km
Geschwindigkeit 7.59 km/s
Subsatellitenpunkt 78.96°N, 152.84°E
Startdatum 27. Apr. 2023
Alter 2.6 years
Typ internet

Technische Details

Klassifizierung Payload
Masse 300.00 kg
Trockenmasse 260.00 kg
Gesamtmasse 300.00 kg
Länge 0.20 m
Durchmesser 2.80 m
Spannweite 9.00 m
Form Box + pan
Hersteller SPXS
Bus-Typ Starlink
Phasenstatus In Orbit
Besitzer/Staat SPXS/US

Große Konstellationen

Loading constellations...